Regional Weather Roundup
Issued by NWS Mobile, AL

Home | Current Version | Previous Version | Text Only | Print | Product List | Glossary On
Versions: 1 2 3 4 5 6 7 8 9 10 11 12 13 14 15 16 17 18 19 20 21 22 23 24 25 26 27
000
ASUS44 KMOB 251312
RWRMOB
REGIONAL WEATHER ROUNDUP
NATIONAL WEATHER SERVICE MOBILE AL
800 AM CDT TUE APR 25 2017

NOTE: "FAIR" INDICATES FEW OR NO CLOUDS BELOW 12,000 FEET WITH NO
      SIGNIFICANT WEATHER AND/OR OBSTRUCTIONS TO VISIBILITY.

  * THESE STATIONS ARE PART OF THE UNIVERSITY OF SOUTH ALABAMA
    MESONET AND ARE NOT UNDER NWS OR FAA QUALITY CONTROL.

ALZ061>064-251400-
COASTAL ALABAMA

CITY           SKY/WX    TMP DP  RH WIND       PRES   REMARKS
MOBILE REG APT MOSUNNY   65  57  75 CALM      29.84R
BROOKLEY FIELD SUNNY     65  61  87 CALM      29.85R
USA CAMPUS*      N/A     63  57  82 CALM      29.84R
DOG RIVER*       N/A     63  63 100 CALM      30.53R


CITY           SKY/WX    TMP DP  RH WIND       PRES   REMARKS
GULF SHORES    SUNNY     60  60  98 CALM      29.83S

$$

ALZ051>060-251400-
INTERIOR SOUTHWEST AND SOUTH CENTRAL ALABAMA

CITY           SKY/WX    TMP DP  RH WIND       PRES   REMARKS
GREENVILLE     MOSUNNY   59  53  80 CALM      29.82R
EVERGREEN      MOSUNNY   56  53  90 CALM      29.84R
ATMORE*          N/A     63  57  82 CALM      29.85S
ANDALUSIA/OPP  SUNNY     62  53  72 W5        29.83R
ANDALUSIA*       N/A     59  54  82 W3        29.83R
FLORALA APT    MOSUNNY   61  53  75 CALM      29.85R
FLORALA*         N/A     63  57  82 CALM      30.51R

$$

FLZ001>006-251400-
WESTERN FLORIDA PANHANDLE

CITY           SKY/WX    TMP DP  RH WIND       PRES   REMARKS
PENSACOLA      SUNNY     65  54  67 CALM      29.83R
NAS PENSACOLA  MOSUNNY   63  55  75 CALM      29.83R
MILTON         CLOUDY    60  55  83 CALM      29.84R
WHTNG S FIELD  CLOUDY    62  55  77 CALM      29.84R


CITY           SKY/WX    TMP DP  RH WIND       PRES   REMARKS
JAY*             N/A     61  52  72 SW2       29.84S
DUKE FIELD     SUNNY     60  51  73 CALM      29.83R
CRESTVIEW      SUNNY     58  53  84 CALM      29.85R
VALPARAISO     MOSUNNY   63  52  68 CALM      29.83R
DESTIN         SUNNY     67  60  78 N6        29.84R

$$

MSZ076-079-251400-
INTERIOR SOUTHEAST MISSISSIPPI

CITY           SKY/WX    TMP DP  RH WIND       PRES   REMARKS
LEAKESVILLE*   NOT AVBL
AGRICOLA*        N/A     64  59  82 CALM      29.83

$$

MARINE OBSERVATIONS

STATION/POSITION TIME  TEMP    WIND        PRES    WAVE
                       AIR SEA DIR/SP/G            HT/PER
                 (UTC) (F)     (DEG/KT/KT) (MB)    (FT/S)
PASCAGOULA       1248   70      CALM  /  1 1009.8R
PETIT BOIS ISLND 1248   71     160/  3/  4 1010.6R
GRAND BAY        1145   62      20/  3     1010.0S
KATRINA CUT      1230   71     150/  4     1009.8R
CEDAR POINT      1230   71     120/  4     1009.5R
E DAUPHIN ISLAND 1200   69      90/  4/  5 1009.6R
MIDDLE BAY LIGHT 1230   69     120/  3     1010.2R
USCG MOBILE BAY  1248   63 74   30/  2/  3 1010.7R
STATE DOCKS      1248   66 75              1010.1R
MEAHER PARK      1230   63        CALM     1009.8R
FORT MORGAN      1248   70     140/  3/  4   N/A
12 S ORANGE BCH  1250   70 73   CALM  /  2 1009.9R   1
PENSACOLA BAY    1248   65 72   CALM  /  2 1010.3R
64 S DAUPHIN ISL 1250   71 73  270/ 10/ 14 1010.5R   2/ 4
67 S FORT MORGAN 1230   70     320/  2     1010.2R

$$

SELECTED LOCATIONS ACROSS THE REGION

CITY           SKY/WX    TMP DP  RH WIND       PRES   REMARKS
NEW ORLEANS    MOSUNNY   64  58  80 SW6       29.84R
GULFPORT       MOSUNNY   61  58  90 CALM      29.83R
PASCAGOULA AP  SUNNY     62  57  83 CALM      29.83R
PASCAGOULA*    NOT AVBL
HATTIESBURG    SUNNY     58  53  84 CALM      29.84R
LAUREL         SUNNY     57  54  88 CALM      29.84R
MERIDIAN       SUNNY     56  54  93 S5        29.83S
JACKSON        SUNNY     60  55  83 S5        29.82R
MONTGOMERY     SUNNY     60  53  77 CALM      29.83R
TROY           SUNNY     57  55  93 CALM      29.83S
ASHFORD*         N/A     59  54  82 W3        29.83R
DOTHAN         SUNNY     61  57  87 NW7       29.86R
PANAMA CITY    SUNNY     61  54  77 NW3       29.83R

$$





USA.gov is the U.S. government's official web portal to all federal, state and local government web resources and services.